TimeEDT,TemperatureF,Dew PointF,Humidity,Sea Level PressureIn,VisibilityMPH,Wind Direction,Wind SpeedMPH,Gust SpeedMPH,PrecipitationIn,Events,Conditions,WindDirDegrees,DateUTC
12:53 AM,75.0,70.0,84,30.23,10.0,Calm,Calm,-,N/A,,Clear,0,2013-07-04 04:53:00
1:53 AM,73.9,70.0,87,30.23,10.0,Calm,Calm,-,N/A,,Clear,0,2013-07-04 05:53:00
2:24 AM,73.4,69.8,88,30.23,10.0,SSW,3.5,-,N/A,,Mostly Cloudy,210,2013-07-04 06:24:00
2:53 AM,73.9,69.1,85,30.21,10.0,SSW,3.5,-,N/A,,Scattered Clouds,200,2013-07-04 06:53:00
3:53 AM,73.9,69.1,85,30.21,10.0,SSW,5.8,-,N/A,,Clear,200,2013-07-04 07:53:00
4:46 AM,73.4,69.8,88,30.22,10.0,SSW,5.8,-,N/A,,Mostly Cloudy,200,2013-07-04 08:46:00
4:53 AM,73.9,69.1,85,30.22,10.0,SSW,5.8,-,N/A,,Mostly Cloudy,200,2013-07-04 08:53:00
5:04 AM,73.4,69.8,88,30.22,10.0,Variable,3.5,-,N/A,,Mostly Cloudy,0,2013-07-04 09:04:00
5:24 AM,73.4,69.8,88,30.23,10.0,Calm,Calm,-,N/A,,Scattered Clouds,0,2013-07-04 09:24:00
5:53 AM,73.0,69.1,87,30.23,10.0,Calm,Calm,-,N/A,,Clear,0,2013-07-04 09:53:00
6:30 AM,73.4,69.8,88,30.24,10.0,Calm,Calm,-,N/A,,Mostly Cloudy,0,2013-07-04 10:30:00
6:45 AM,73.4,69.8,88,30.24,10.0,Variable,3.5,-,N/A,,Overcast,0,2013-07-04 10:45:00
6:53 AM,75.0,70.0,84,30.24,10.0,SW,3.5,-,N/A,,Overcast,230,2013-07-04 10:53:00
7:53 AM,75.9,70.0,82,30.24,10.0,Variable,4.6,-,N/A,,Mostly Cloudy,0,2013-07-04 11:53:00
8:53 AM,78.1,70.0,76,30.25,10.0,SSW,8.1,-,N/A,,Overcast,210,2013-07-04 12:53:00
9:53 AM,81.0,70.0,69,30.25,10.0,SSW,8.1,-,N/A,,Mostly Cloudy,210,2013-07-04 13:53:00
10:22 AM,82.4,69.8,66,30.25,10.0,SSW,9.2,-,N/A,,Mostly Cloudy,210,2013-07-04 14:22:00
10:53 AM,82.0,70.0,67,30.24,10.0,South,5.8,-,N/A,,Mostly Cloudy,190,2013-07-04 14:53:00
11:53 AM,84.0,70.0,63,30.24,10.0,South,6.9,17.3,N/A,,Scattered Clouds,190,2013-07-04 15:53:00
12:53 PM,84.9,69.1,59,30.23,10.0,SSW,9.2,-,N/A,,Scattered Clouds,210,2013-07-04 16:53:00
1:53 PM,84.9,68.0,57,30.22,10.0,Variable,5.8,-,N/A,,Mostly Cloudy,0,2013-07-04 17:53:00
2:53 PM,86.0,69.1,57,30.21,10.0,Variable,3.5,-,N/A,,Partly Cloudy,0,2013-07-04 18:53:00
3:53 PM,87.1,70.0,57,30.19,10.0,Variable,6.9,-,N/A,,Scattered Clouds,0,2013-07-04 19:53:00
4:53 PM,87.1,68.0,53,30.17,10.0,Variable,5.8,16.1,N/A,,Partly Cloudy,0,2013-07-04 20:53:00
5:53 PM,87.1,70.0,57,30.16,10.0,Variable,6.9,-,N/A,,Scattered Clouds,0,2013-07-04 21:53:00
6:53 PM,84.9,68.0,57,30.17,10.0,Variable,3.5,-,N/A,,Clear,0,2013-07-04 22:53:00
7:53 PM,82.9,69.1,63,30.18,10.0,South,3.5,-,N/A,,Clear,190,2013-07-04 23:53:00
8:53 PM,81.0,68.0,65,30.18,10.0,SSW,4.6,-,N/A,,Clear,200,2013-07-05 00:53:00
9:53 PM,79.0,66.9,66,30.20,10.0,Variable,4.6,-,N/A,,Clear,0,2013-07-05 01:53:00
10:53 PM,78.1,66.9,68,30.20,10.0,Calm,Calm,-,N/A,,Clear,0,2013-07-05 02:53:00
11:53 PM,77.0,68.0,74,30.20,10.0,Calm,Calm,-,N/A,,Clear,0,2013-07-05 03:53:00